Flag for Switzerland Weather past 2 weeks in Volketswil, Zurich, Switzerland

Now
56 °F

Cool.


Feels Like: 56 °F
Forecast: 47 / 65 °F
Wind: 1 mph from Northwest

Location: Zurich Town / Ville.

Current Time: Oct 20, 2014 at 6:57:45 AM

Latest Report: Oct 20, 2014 at 4:00 AM


Visibility: N/A

Pressure: 30.21 "Hg

Humidity: 86%

Dew point: 52 °F

Location of VolketswilLocation

Historic Weather in Volketswil — Graph

°F

Volketswil temperature yesterday

Maximum temperature yesterday: 70 °F (at 4:00 PM)
Minimum temperature yesterday: 50 °F (at 8:00 AM)
Average temperature yesterday: 59 °F

Past Weeks' High & Low Weather Summary

 TemperatureHumidityPressure
High72 °F (Oct 9, 5:00 PM)100% (Oct 5, 7:00 AM)30.27 "Hg (Oct 5, 7:00 AM)
Low50 °F (Oct 14, 7:00 AM)46% (Oct 9, 3:00 PM)29.75 "Hg (Oct 15, 5:00 PM)
Average58 °F87%29.94 "Hg
* Reported Oct 5 4:00 AM — Oct 20 4:00 AM, Volketswil, Weather by CustomWeather, © 2014

Note: Actual official high and low records may vary slightly from our data, if they occured in-between our weather recording intervals... More about our weather records

Advertising

Volketswil weather history for previous 24 hours

 ConditionsComfort  
Time TempWeatherWind HumidityBarometerVisibility
4:00 AM
Oct 20
56 °FCool.1 mph86%30.21 "HgN/A
3:00 AM55 °FCool.1 mph87%30.23 "HgN/A
2:00 AM57 °FCool.1 mph81%30.22 "HgN/A
1:00 AM58 °FCool.1 mph81%30.21 "HgN/A
12:00 AM61 °FCool.2 mph71%30.20 "HgN/A
11:00 PM
Oct 19
60 °FCool.1 mph77%30.21 "HgN/A
10:00 PM61 °FCool.2 mph78%30.21 "HgN/A
9:00 PM61 °FCool.1 mph79%30.20 "HgN/A
8:00 PM63 °FMild.3 mph73%30.19 "HgN/A
7:00 PM66 °FMild.5 mph63%30.17 "HgN/A
6:00 PM67 °FMild.3 mph65%30.16 "HgN/A
5:00 PM70 °FMild.2 mph58%30.14 "HgN/A
4:00 PM70 °FMild.3 mph57%30.15 "HgN/A
3:00 PM69 °FMild.3 mph59%30.16 "HgN/A
2:00 PM67 °FMild.5 mph63%30.19 "HgN/A
1:00 PM67 °FMild.6 mph77%30.21 "HgN/A
12:00 PM64 °FMild.5 mph85%30.22 "HgN/A
11:00 AM58 °FCool.2 mph91%30.24 "HgN/A
10:00 AM52 °FCool.No wind97%30.27 "HgN/A
9:00 AM52 °FCool.1 mph92%30.26 "HgN/A
8:00 AM50 °FCool.No wind95%30.24 "HgN/A
7:00 AM51 °FCool.No wind95%30.24 "HgN/A
6:00 AM52 °FCool.1 mph97%30.24 "HgN/A
Weather by CustomWeather, © 2014

See weather overviewHow to use our weather pages